This demonstration page uses our WeatherBlox Daily Observations layout. Learn more.

Left ArrowRight Arrow

Hourly Observations for August 25, 2018

Temp ( °F °C ) Dew Point ( °F °C ) Humidity (%) Winds ( mph kmh ) Pressure ( in mb ) Visibility ( mi km ) Precip ( " mm )
12:52 am 00:52 Clear 76 24.4 72 22.2 88 88 S 10 17 29.91 1013 8 13 0.00 0.00
1:52 am 01:52 Clear 76 24.4 72 22.2 88 88 SSE 13 20 29.91 1013 8 13 0.00 0.00
2:52 am 02:52 Clear 76 24.4 71 21.7 85 85 S 14 22 29.91 1013 8 13 0.00 0.00
3:52 am 03:52 Clear 76 24.4 71 21.7 85 85 S 12 19 29.92 1013 8 13 0.00 0.00
4:52 am 04:52 Clear 75 23.9 71 21.7 88 88 S 13 20 29.93 1014 8 13 0.00 0.00
5:52 am 05:52 Mostly Clear 75 23.9 70 21.1 84 84 S 12 19 29.94 1014 8 13 0.00 0.00
6:52 am 06:52 Sunny with Mist and Fog 74 23.3 70 21.1 88 88 S 12 19 29.96 1015 6 10 0.00 0.00
7:52 am 07:52 Mostly Sunny 76 24.4 71 21.7 85 85 S 13 20 29.98 1015 7 11 0.00 0.00
8:52 am 08:52 Mostly Cloudy 76 24.4 71 21.7 85 85 S 9 15 30.00 1016 8 13 0.02 0.51
8:59 am 08:59 Partly Cloudy with Nearby Thunderstorms 76 24.4 71 21.7 85 85 S 9 15 30.00 1016 7 11 0.00 0.00
9:18 am 09:18 Sunny 77 25 71 21.7 82 82 S 8 13 30.00 1016 7 11 0.00 0.00
9:52 am 09:52 Sunny 81 27.2 71 21.7 72 72 SW 13 20 30.00 1016 8 13 0.00 0.00
10:52 am 10:52 Mostly Cloudy 82 27.8 70 21.1 67 67 SW 10 17 30.01 1016 10 16 0.00 0.00
11:52 am 11:52 Partly Cloudy 81 27.2 71 21.7 72 72 SW 14 22 30.02 1017 9 14 0.00 0.03
12:52 pm 12:52 Mostly Cloudy with Light Rain 81 27.2 72 22.2 74 74 S 6 9 30.01 1016 9 14 0.00 0.03
1:52 pm 13:52 Mostly Sunny 83 28.3 74 23.3 74 74 S 9 15 30.00 1016 9 14 0.00 0.03
2:52 pm 14:52 Sunny 84 28.9 73 22.8 70 70 S 10 17 30.00 1016 10 16 0.00 0.00
3:52 pm 15:52 Sunny 83 28.3 72 22.2 70 70 S 8 13 29.99 1016 10 16 0.00 0.00
4:52 pm 16:52 Sunny 85 29.4 75 23.9 72 72 SSE 3 6 29.97 1015 10 16 0.00 0.00
5:52 pm 17:52 Sunny 88 31.1 75 23.9 66 66 S 7 11 29.96 1015 10 16 0.00 0.00
6:52 pm 18:52 Sunny 86 30 72 22.2 63 63 S 10 17 29.96 1015 10 16 0.00 0.00
7:52 pm 19:52 Sunny 82 27.8 72 22.2 72 72 SSE 7 11 29.96 1015 10 16 0.00 0.00
8:52 pm 20:52 Clear 81 27.2 71 21.7 72 72 S 9 15 29.98 1015 10 16 0.00 0.00
9:52 pm 21:52 Clear 80 26.7 71 21.7 74 74 S 9 15 30.00 1016 10 16 0.00 0.00
10:52 pm 22:52 Clear 78 25.6 71 21.7 79 79 S 9 15 30.01 1016 10 16 0.00 0.00
11:52 pm 23:52 Clear 79 26.1 71 21.7 77 77 S 13 20 30.01 1016 10 16 0.00 0.00

Powered by AerisWeather